Location: Caramacate
(10.0289°N, 66.7587°W)
Time: 20:15:03
(UTC+00:00)

SL-4 R/B - Pass Details

Date: 05 August 2024
Orbit: 410 x 590 km, 51.6° (Epoch: 07 September)

Event Time Altitude Azimuth Distance (km) Brightness Sun altitude
Rises 23:39:34 0° 184° (S) 2,816 5.5 -12.7°
Reaches altitude 10° 23:42:40 10° 161° (SSE) 1,920 4.4 -13.5°
Enters shadow 23:43:21 12° 153° (SSE) 1,779 4.2 -13.6°
